Regional Weather Roundup
Issued by NWS

Home | Current Version | Previous Version | Graphics & Text | Print | Product List | Glossary Off
Versions: 1 2 3 4 5 6 7 8 9 10 11 12 13 14 15 16 17 18 19 20 21 22 23 24 25 26 27 28 29 30 31 32 33 34 35 36 37 38 39 40 41 42 43 44 45 46 47 48 49 50

682
ASUS43 KTOP 160559
RWRKS

WEATHER ROUNDUP FOR KANSAS
NATIONAL WEATHER SERVICE GOODLAND KS
1200 AM CST SAT DEC 16 2017

NOTE:  "FAIR" INDICATES FEW OR NO CLOUDS BELOW 12,000 FEET WITH NO
SIGNIFICANT WEATHER AND/OR OBSTRUCTIONS TO VISIBILITY.

KSZ001>006-013>018-027>032-041>047-160700-
NORTHWEST KANSAS

CITY           SKY/WX    TMP DP  RH WIND       PRES   REMARKS
GOODLAND       CLOUDY    40  12  32 SW10      29.79F WCI  33
6HR MIN TEMP:  39; 6HR MAX TEMP:  51;

HAYS           CLOUDY    36  17  46 SW13      29.84F WCI  27
HILL CITY      CLOUDY    37  14  38 W8        29.81F
6HR MIN TEMP:  37; 6HR MAX TEMP:  48;

RUSSELL        CLOUDY    34  19  54 S14       29.83F WCI  25
6HR MIN TEMP:  34; 6HR MAX TEMP:  44;

$$

KSZ061>065-074>080-084>089-160700-
SOUTHWEST KANSAS

CITY           SKY/WX    TMP DP  RH WIND       PRES   REMARKS
DODGE CITY     CLOUDY    36  17  46 SW15      29.89S WCI  27
6HR MIN TEMP:  35; 6HR MAX TEMP:  43;

GARDEN CITY    CLOUDY    36  15  42 SW13      29.85F WCI  27
6HR MIN TEMP:  34; 6HR MAX TEMP:  41;

GREAT BEND     CLOUDY    37  19  48 S9        29.88F
LIBERAL        CLOUDY    31  18  58 SW12      29.90F WCI  22
$$

KSZ066>073-081>083-090>101-160700-
SOUTHEAST KANSAS

CITY           SKY/WX    TMP DP  RH WIND       PRES   REMARKS
CHANUTE        CLEAR     37  23  56 S15       30.01F WCI  28
6HR MIN TEMP:  33; 6HR MAX TEMP:  41;

COFFEYVILLE    CLEAR     39  24  55 S15       30.03F WCI  31
6HR MIN TEMP:  34; 6HR MAX TEMP:  42;

HUTCHINSON     CLEAR     34  23  64 S7        29.92S
6HR MIN TEMP:  34; 6HR MAX TEMP:  45;

MEDICINE LODGE   N/A     35  23  61 SE6       29.95S
NEWTON         CLEAR     39  23  52 SW16      29.93F WCI  30
PARSONS        CLEAR     35  24  64 S5        30.03F
6HR MIN TEMP:  33; 6HR MAX TEMP:  41;

WICHITA INTL   CLEAR     38  25  59 S12       29.95F WCI  30
6HR MIN TEMP:  37; 6HR MAX TEMP:  44;

WICHITA JABRA  CLEAR     41  25  53 S18G25    29.94F
6HR MIN TEMP:  41; 6HR MAX TEMP:  44;

WICHITA MCCONL CLEAR     38  23  53 SW14      29.95F WCI  30
WINFIELD       CLEAR     40  25  55 S16       30.00F WCI  31
6HR MIN TEMP:  37; 6HR MAX TEMP:  41;

$$

KSZ007>012-019>026-033>040-048>060-102>105-160700-
NORTHEAST KANSAS

CITY           SKY/WX    TMP DP  RH WIND       PRES   REMARKS
CONCORDIA      CLEAR     39  23  52 S16       29.81F WCI  30
6HR MIN TEMP:  39; 6HR MAX TEMP:  47;

EMPORIA        CLEAR     38  24  57 S18       29.92F WCI  28
6HR MIN TEMP:  36; 6HR MAX TEMP:  40;

LAWRENCE       CLEAR     42  26  53 S12       29.92F
6HR MIN TEMP:  40; 6HR MAX TEMP:  44;

MANHATTAN      CLOUDY    40  24  53 SW12      29.87F WCI  33
6HR MIN TEMP:  40; 6HR MAX TEMP:  46;

OLATHE IND     CLEAR     40  24  53 S18G28    29.94F WCI  31
6HR MIN TEMP:  39; 6HR MAX TEMP:  41;

OLATHE EXE     CLEAR     38  25  59 S13       29.93F WCI  30
6HR MIN TEMP:  37; 6HR MAX TEMP:  39;

SALINA         CLEAR     40  24  53 S12       29.87F WCI  33
6HR MIN TEMP:  40; 6HR MAX TEMP:  46;

TOPEKA BILLARD CLEAR    N/A N/A N/A S6        29.91S
TOPEKA FORBES  CLEAR     40  26  57 S15       29.90F WCI  32
6HR MIN TEMP:  40; 6HR MAX TEMP:  43;

$$




USA.gov is the U.S. government's official web portal to all federal, state and local government web resources and services.